• En España
  • Lista de países
  • Para 7 días
  • Temperatura del agua
  • Mapa Satelital
  • El tiempo en el mapa
  • Informadores
  • user-avatar
    Iniciar sesión

    Tiempo cada hora Shaki

    Hoy, 18 Agosto, Viernes

    Tiempo Temperatura Precipitaciones Viento Presión Humedad
    00:00 +26°C° 0 mm 2 mps 734 mmHg 48%
    01:00 +25°C° 0 mm 2 mps 734 mmHg 49%
    02:00 +25°C° 0 mm 2 mps 734 mmHg 50%
    03:00 +25°C° 0 mm 1 mps 733 mmHg 48%
    04:00 +25°C° 0 mm 1 mps 733 mmHg 47%
    05:00 +25°C° 0 mm 2 mps 734 mmHg 46%
    06:00 +26°C° 0 mm 2 mps 734 mmHg 45%
    07:00 +27°C° 0 mm 2 mps 734 mmHg 41%
    08:00 +29°C° 0 mm 2 mps 734 mmHg 37%
    09:00 +31°C° 0 mm 2 mps 734 mmHg 33%
    10:00 +32°C° 0 mm 2 mps 734 mmHg 32%
    11:00 +34°C° 0 mm 2 mps 734 mmHg 31%
    12:00 +34°C° 0 mm 2 mps 734 mmHg 30%
    13:00 +35°C° 0 mm 2 mps 733 mmHg 29%
    14:00 +35°C° 0 mm 2 mps 733 mmHg 28%
    15:00 +34°C° 0 mm 1 mps 733 mmHg 29%
    16:00 +33°C° 0 mm 1 mps 734 mmHg 31%
    17:00 +33°C° 0 mm 1 mps 734 mmHg 32%
    18:00 +32°C° 0 mm 1 mps 734 mmHg 34%
    19:00 +30°C° 0 mm 2 mps 734 mmHg 36%
    20:00 +29°C° 0 mm 2 mps 735 mmHg 38%
    21:00 +27°C° 0 mm 2 mps 735 mmHg 40%
    22:00 +27°C° 0 mm 2 mps 735 mmHg 40%
    23:00 +27°C° 0 mm 2 mps 736 mmHg 41%

    Mañana, 19 Agosto, Sábado

    Tiempo Temperatura Precipitaciones Viento Presión Humedad
    00:00 +26°C° 0 mm 2 mps 736 mmHg 41%
    01:00 +26°C° 0 mm 2 mps 736 mmHg 43%
    02:00 +25°C° 0 mm 2 mps 736 mmHg 45%
    03:00 +25°C° 0 mm 2 mps 736 mmHg 47%
    04:00 +25°C° 0 mm 2 mps 736 mmHg 48%
    05:00 +25°C° 0 mm 2 mps 736 mmHg 49%
    06:00 +25°C° 0 mm 1 mps 736 mmHg 50%
    07:00 +27°C° 0 mm 1 mps 736 mmHg 45%
    08:00 +29°C° 0 mm 1 mps 736 mmHg 39%
    09:00 +31°C° 0 mm 1 mps 736 mmHg 34%
    10:00 +32°C° 0 mm 2 mps 736 mmHg 32%
    11:00 +34°C° 0 mm 2 mps 736 mmHg 30%
    12:00 +35°C° 0 mm 3 mps 736 mmHg 28%
    13:00 +36°C° 0 mm 3 mps 736 mmHg 27%
    14:00 +36°C° 0 mm 3 mps 736 mmHg 26%
    15:00 +37°C° 0 mm 4 mps 735 mmHg 26%
    16:00 +36°C° 0 mm 4 mps 735 mmHg 27%
    17:00 +35°C° 0 mm 4 mps 735 mmHg 28%
    18:00 +34°C° 0 mm 5 mps 736 mmHg 30%
    19:00 +32°C° 0 mm 4 mps 736 mmHg 32%
    20:00 +30°C° 0 mm 4 mps 736 mmHg 34%
    21:00 +28°C° 0 mm 4 mps 737 mmHg 37%
    22:00 +27°C° 0 mm 4 mps 737 mmHg 38%
    23:00 +27°C° 0 mm 3 mps 737 mmHg 39%

    Pasado mañana, 20 Agosto, Domingo

    Tiempo Temperatura Precipitaciones Viento Presión Humedad
    00:00 +26°C° 0 mm 3 mps 737 mmHg 41%
    01:00 +26°C° 0 mm 2 mps 737 mmHg 40%
    02:00 +25°C° 0 mm 2 mps 736 mmHg 40%
    03:00 +25°C° 0 mm 2 mps 736 mmHg 39%
    04:00 +25°C° 0 mm 2 mps 736 mmHg 37%
    05:00 +25°C° 0 mm 2 mps 736 mmHg 35%
    06:00 +26°C° 0 mm 2 mps 736 mmHg 33%
    07:00 +28°C° 0 mm 2 mps 736 mmHg 29%
    08:00 +30°C° 0 mm 2 mps 736 mmHg 25%
    09:00 +32°C° 0 mm 2 mps 737 mmHg 21%
    10:00 +34°C° 0 mm 2 mps 736 mmHg 20%
    11:00 +35°C° 0 mm 3 mps 736 mmHg 19%
    12:00 +37°C° 0 mm 4 mps 736 mmHg 17%
    13:00 +37°C° 0 mm 4 mps 736 mmHg 18%
    14:00 +37°C° 0 mm 5 mps 735 mmHg 18%
    15:00 +39°C° 0 mm 5 mps 735 mmHg 18%
    16:00 +36°C° 0 mm 5 mps 735 mmHg 20%
    17:00 +35°C° 0 mm 5 mps 735 mmHg 23%
    18:00 +34°C° 0 mm 5 mps 735 mmHg 26%
    19:00 +32°C° 0 mm 5 mps 735 mmHg 28%
    20:00 +29°C° 0 mm 4 mps 736 mmHg 30%
    21:00 +28°C° 0 mm 4 mps 736 mmHg 31%
    22:00 +27°C° 0 mm 3 mps 736 mmHg 32%
    23:00 +26°C° 0 mm 3 mps 736 mmHg 33%

    21 Agosto, Lunes

    Tiempo Temperatura Precipitaciones Viento Presión Humedad
    00:00 +26°C° 0 mm 2 mps 735 mmHg 33%
    01:00 +25°C° 0 mm 2 mps 735 mmHg 32%
    02:00 +25°C° 0 mm 2 mps 735 mmHg 32%
    03:00 +25°C° 0 mm 2 mps 735 mmHg 31%
    04:00 +25°C° 0 mm 2 mps 735 mmHg 30%
    05:00 +25°C° 0 mm 2 mps 735 mmHg 30%
    06:00 +25°C° 0 mm 2 mps 735 mmHg 29%
    07:00 +28°C° 0 mm 2 mps 735 mmHg 26%
    08:00 +30°C° 0 mm 2 mps 735 mmHg 24%
    09:00 +32°C° 0 mm 2 mps 734 mmHg 21%
    10:00 +34°C° 0 mm 2 mps 734 mmHg 20%
    11:00 +35°C° 0 mm 2 mps 734 mmHg 19%
    12:00 +36°C° 0 mm 2 mps 733 mmHg 18%
    13:00 +37°C° 0 mm 3 mps 733 mmHg 18%
    14:00 +37°C° 0 mm 3 mps 733 mmHg 17%
    15:00 +38°C° 0 mm 3 mps 732 mmHg 17%
    16:00 +37°C° 0 mm 3 mps 732 mmHg 19%
    17:00 +36°C° 0 mm 3 mps 732 mmHg 21%
    18:00 +35°C° 0 mm 3 mps 732 mmHg 23%
    19:00 +33°C° 0 mm 3 mps 733 mmHg 25%
    20:00 +30°C° 0 mm 3 mps 733 mmHg 27%
    21:00 +28°C° 0 mm 3 mps 734 mmHg 29%
    22:00 +28°C° 0 mm 3 mps 733 mmHg 29%
    23:00 +27°C° 0 mm 2 mps 733 mmHg 30%

    22 Agosto, Martes

    Tiempo Temperatura Precipitaciones Viento Presión Humedad
    00:00 +27°C° 0 mm 2 mps 733 mmHg 31%
    01:00 +26°C° 0 mm 2 mps 733 mmHg 31%
    02:00 +26°C° 0 mm 2 mps 733 mmHg 31%
    03:00 +25°C° 0 mm 2 mps 733 mmHg 31%
    04:00 +26°C° 0 mm 1 mps 733 mmHg 31%
    05:00 +26°C° 0 mm 1 mps 733 mmHg 31%
    06:00 +26°C° 0 mm 1 mps 733 mmHg 31%
    07:00 +28°C° 0 mm 1 mps 733 mmHg 27%
    08:00 +30°C° 0 mm 1 mps 733 mmHg 23%
    09:00 +33°C° 0 mm 1 mps 733 mmHg 20%
    10:00 +35°C° 0 mm 2 mps 733 mmHg 19%
    11:00 +36°C° 0 mm 2 mps 732 mmHg 18%
    12:00 +37°C° 0 mm 3 mps 732 mmHg 17%
    13:00 +38°C° 0 mm 3 mps 732 mmHg 17%
    14:00 +38°C° 0 mm 3 mps 731 mmHg 16%
    15:00 +39°C° 0 mm 3 mps 731 mmHg 16%
    16:00 +37°C° 0 mm 3 mps 731 mmHg 18%
    17:00 +36°C° 0 mm 3 mps 732 mmHg 21%
    18:00 +35°C° 0 mm 3 mps 732 mmHg 23%
    19:00 +33°C° 0 mm 4 mps 732 mmHg 25%
    20:00 +30°C° 0 mm 4 mps 733 mmHg 27%
    21:00 +29°C° 0 mm 4 mps 733 mmHg 29%
    22:00 +28°C° 0 mm 3 mps 733 mmHg 30%
    23:00 +27°C° 0 mm 3 mps 733 mmHg 31%

    23 Agosto, Miércoles

    Tiempo Temperatura Precipitaciones Viento Presión Humedad
    00:00 +27°C° 0 mm 3 mps 733 mmHg 32%
    01:00 +26°C° 0 mm 2 mps 733 mmHg 32%
    02:00 +26°C° 0 mm 2 mps 733 mmHg 31%
    03:00 +25°C° 0 mm 2 mps 733 mmHg 31%
    04:00 +26°C° 0 mm 2 mps 733 mmHg 31%
    05:00 +26°C° 0 mm 2 mps 733 mmHg 30%
    06:00 +26°C° 0 mm 1 mps 734 mmHg 29%
    07:00 +28°C° 0 mm 1 mps 734 mmHg 25%
    08:00 +30°C° 0 mm 2 mps 734 mmHg 21%
    09:00 +34°C° 0 mm 2 mps 734 mmHg 17%
    10:00 +35°C° 0 mm 2 mps 734 mmHg 16%
    11:00 +36°C° 0 mm 3 mps 734 mmHg 15%
    12:00 +38°C° 0 mm 4 mps 733 mmHg 14%
    13:00 +38°C° 0 mm 4 mps 733 mmHg 14%
    14:00 +39°C° 0 mm 5 mps 733 mmHg 14%
    15:00 +40°C° 0 mm 5 mps 733 mmHg 14%
    16:00 +37°C° 0 mm 5 mps 733 mmHg 17%
    17:00 +36°C° 0 mm 5 mps 733 mmHg 20%
    18:00 +34°C° 0 mm 5 mps 733 mmHg 22%
    19:00 +33°C° 0 mm 5 mps 734 mmHg 24%
    20:00 +30°C° 0 mm 4 mps 734 mmHg 25%
    21:00 +28°C° 0 mm 4 mps 734 mmHg 27%
    22:00 +27°C° 0 mm 3 mps 734 mmHg 27%
    23:00 +27°C° 0 mm 3 mps 734 mmHg 28%
    Mostrar más